TimeCST,TemperatureF,Dew PointF,Humidity,Sea Level PressureIn,VisibilityMPH,Wind Direction,Wind SpeedMPH,Gust SpeedMPH,PrecipitationIn,Events,Conditions,WindDirDegrees,DateUTC
12:53 AM,35.1,28.0,76,30.02,10.0,SSE,16.1,-,N/A,,Clear,160,2014-01-01 06:53:00
1:53 AM,35.1,28.9,78,29.98,10.0,SSE,16.1,-,N/A,,Clear,160,2014-01-01 07:53:00
2:53 AM,33.1,28.0,82,29.97,10.0,SSE,12.7,-,N/A,,Clear,160,2014-01-01 08:53:00
3:53 AM,32.0,28.0,85,29.94,10.0,SSE,13.8,-,N/A,,Clear,160,2014-01-01 09:53:00
4:53 AM,30.9,28.0,89,29.92,10.0,South,11.5,-,N/A,,Clear,170,2014-01-01 10:53:00
5:53 AM,30.9,28.0,89,29.90,10.0,South,13.8,-,N/A,,Clear,170,2014-01-01 11:53:00
6:53 AM,30.0,27.0,88,29.89,10.0,South,11.5,-,N/A,,Clear,170,2014-01-01 12:53:00
7:53 AM,30.0,27.0,88,29.90,10.0,South,11.5,-,N/A,,Clear,190,2014-01-01 13:53:00
8:53 AM,32.0,30.0,92,29.91,10.0,SW,3.5,-,N/A,,Clear,220,2014-01-01 14:53:00
9:53 AM,37.0,30.9,79,29.89,10.0,SSW,6.9,-,N/A,,Clear,200,2014-01-01 15:53:00
10:53 AM,41.0,32.0,70,29.93,10.0,NNW,10.4,-,N/A,,Clear,330,2014-01-01 16:53:00
11:53 AM,45.0,30.0,56,29.91,10.0,North,15.0,18.4,N/A,,Clear,350,2014-01-01 17:53:00
12:53 PM,46.9,30.9,54,29.92,10.0,NNW,12.7,-,N/A,,Clear,340,2014-01-01 18:53:00
1:53 PM,51.1,30.9,46,29.93,10.0,North,19.6,-,N/A,,Clear,350,2014-01-01 19:53:00
2:53 PM,46.9,30.9,54,29.98,10.0,North,25.3,31.1,N/A,,Clear,350,2014-01-01 20:53:00
3:53 PM,37.9,26.1,62,30.07,10.0,NNW,24.2,33.4,N/A,,Clear,340,2014-01-01 21:53:00
4:53 PM,34.0,23.0,64,30.12,10.0,North,23.0,32.2,N/A,,Clear,360,2014-01-01 22:53:00
5:53 PM,30.9,19.9,64,30.17,10.0,North,21.9,31.1,N/A,,Clear,350,2014-01-01 23:53:00
6:53 PM,28.0,19.0,69,30.25,10.0,North,27.6,34.5,N/A,,Overcast,350,2014-01-02 00:53:00
7:53 PM,27.0,19.0,72,30.28,10.0,North,26.5,34.5,N/A,,Overcast,350,2014-01-02 01:53:00
8:53 PM,23.0,17.1,78,30.29,10.0,North,27.6,36.8,N/A,,Partly Cloudy,360,2014-01-02 02:53:00
9:53 PM,21.9,16.0,78,30.32,10.0,North,28.8,40.3,N/A,,Clear,350,2014-01-02 03:53:00
10:53 PM,21.0,16.0,81,30.38,10.0,NNW,18.4,-,N/A,,Partly Cloudy,340,2014-01-02 04:53:00
11:53 PM,19.9,15.1,81,30.39,10.0,NNW,18.4,26.5,N/A,,Clear,340,2014-01-02 05:53:00